Regional Weather Roundup
Issued by NWS

Home | Current Version | Previous Version | Graphics & Text | Print | Product List | Glossary On
Versions: 1 2 3 4 5 6 7 8 9 10 11 12 13 14 15 16 17 18 19 20 21 22 23 24 25 26 27 28 29 30 31 32 33 34 35 36 37 38 39 40 41 42 43 44 45 46 47 48 49 50
000
ASUS43 KLSX 230757
RWRMO

WEATHER SUMMARY FOR MISSOURI
NATIONAL WEATHER SERVICE SPRINGFIELD MO
200 AM CST MON JAN 23 2017

NOTE: "FAIR" INDICATES FEW OR NO CLOUDS BELOW 12,000 FEET WITH NO
       SIGNIFICANT WEATHER AND/OR OBSTRUCTIONS TO VISIBILITY.
       CURRENT SKY AND/OR WEATHER CONDITIONS ARE NOT AVAILABLE FOR
       CHILLICOTHE AND FARMINGTON.

MOZ001>031-035>038-043-044-053-054-230900-
...NORTHERN AND WESTERN MISSOURI...

CITY           SKY/WX    TMP DP  RH WIND       PRES   REMARKS
KANSAS CTY INT CLEAR     31  27  85 NW6       29.89F FOG     WCI  25
LEE`S SUMMIT   CLEAR     35  32  88 NW8       29.89F WCI  29
ST JOSEPH      CLOUDY    32  32 100 N6        29.92S FOG     WCI  26
CHILLICOTHE      N/A     38  35  89 NW7       29.89R

$$
MOZ066>068-077>081-088>096-101>105-230900-
...SOUTHWEST MISSOURI...

CITY           SKY/WX    TMP DP  RH WIND       PRES   REMARKS
SPRINGFIELD    CLOUDY    38  35  89 NW14      29.84F WCI  30
JOPLIN         CLOUDY    38  36  92 W7        29.93R

$$
MOZ032>034-039>042-045>050-055>058-069>072-230900-
...CENTRAL MISSOURI...

CITY           SKY/WX    TMP DP  RH WIND       PRES   REMARKS
COLUMBIA       NOT AVBL
JEFFERSON CITY CLOUDY    40  37  89 NW9       29.83S
ROLLA          CLOUDY    38  36  92 NW13      29.78R WCI  30
SEDALIA        CLOUDY    39  37  92 NW13      29.88R
WARRENSBURG    CLOUDY    37  34  87 NW8       29.89R

$$
MOZ051-052-059>065-230900-
...EAST CENTRAL MISSOURI...

CITY           SKY/WX    TMP DP  RH WIND       PRES   REMARKS
ST LOUIS INTL  CLOUDY    40  34  79 NW14      29.74S

$$
MOZ072>076-082>087-097>100-106>115-230900-
...SOUTH CENTRAL AND SOUTHEAST MISSOURI...

CITY           SKY/WX    TMP DP  RH WIND       PRES   REMARKS
CAPE GIRARDEAU MOCLDY    43  35  73 N21G31    29.66R
POPLAR BLUFF   PTCLDY    44  37  76 NW12G21   29.67R
WEST PLAINS    CLOUDY    40  36  86 NW13G23   29.78R

$$



USA.gov is the U.S. government's official web portal to all federal, state and local government web resources and services.